GSAT-15

Last updated on Thu Oct 30 2025 00:02:50 GMT+0000 (Coordinated Universal Time)

1 41028U 15065A 25302.52210022 -.00000248 00000+0 00000+0 0 9991 2 41028 0.0649 87.8350 0002576 113.9520 117.8009 1.00271720 36485
UTC large
Height (km)
Speed (km/s)
/
Latitude / Longitude
Inclination (degrees)
Orbital Period (minutes)
Azimuth
Elevation
Range (km)
Doppler Factor

Next 0 passes for location: London (51.5072 / 0.1276)

Sorry there are no passes over London.